DUZEAR1 KNEW-KJAN

Flight info

Callsign DUZEAR1
Flight time 0h 47m
Altitude 28000
Route KNEW/18L N0276F280 DCT IMIAL DCT VP161 DCT VP167 DCT RAYOP V9 ROMAR DCT WUWRE DCT UTUWI DCT POKES DCT KAYER DCT KJAN/16L
Aircraft PC12/L-SDE2FGIRWY/SB1

Departure

Time 2026-04-28 16:51
Airport Lakefront Airport (KNEW)

Arrival

Time 2026-04-28 17:39
Airport Jackson-Medgar Wiley Evers International Airport (KJAN)
Time Latitude Longitude Altitude Speed Heading
2026-04-28 16:44 30.03621 -90.02585 11 ft 0 kts 359°
2026-04-28 16:48 30.03622 -90.02585 11 ft 1 kts 328°
2026-04-28 16:48 30.03652 -90.02622 11 ft 8 kts 359°
2026-04-28 16:48 30.03675 -90.02623 11 ft 11 kts 359°
2026-04-28 16:48 30.03807 -90.02661 11 ft 27 kts 340°
2026-04-28 16:49 30.04011 -90.02691 11 ft 33 kts 359°
2026-04-28 16:49 30.04205 -90.02692 11 ft 30 kts
2026-04-28 16:49 30.04405 -90.02695 11 ft 26 kts 359°
2026-04-28 16:49 30.04593 -90.02698 11 ft 33 kts 357°
2026-04-28 16:50 30.04814 -90.02701 11 ft 21 kts 359°
2026-04-28 16:50 30.04973 -90.02703 11 ft 10 kts 357°
2026-04-28 16:50 30.05004 -90.02758 11 ft 13 kts 231°
2026-04-28 16:50 30.04853 -90.02765 11 ft 46 kts 179°
2026-04-28 16:51 30.04298 -90.02756 63 ft 103 kts 179°
2026-04-28 16:51 30.03495 -90.02745 497 ft 121 kts 179°
2026-04-28 16:51 30.02621 -90.02759 1092 ft 131 kts 180°
2026-04-28 16:51 30.01679 -90.02652 1675 ft 147 kts 172°
2026-04-28 16:52 30.00948 -90.02573 1919 ft 167 kts 179°
2026-04-28 16:52 29.99317 -90.03132 2014 ft 201 kts 202°
2026-04-28 16:52 29.98074 -90.03899 2229 ft 199 kts 216°
2026-04-28 16:52 29.97420 -90.04607 2795 ft 184 kts 226°
2026-04-28 16:53 29.96754 -90.05751 3855 ft 161 kts 241°
2026-04-28 16:53 29.96396 -90.06883 4939 ft 145 kts 253°
2026-04-28 16:53 29.96269 -90.08045 5725 ft 149 kts 267°
2026-04-28 16:53 29.96380 -90.09236 6523 ft 151 kts 280°
2026-04-28 16:54 29.96731 -90.10379 7297 ft 153 kts 294°
2026-04-28 16:54 29.97309 -90.11424 8068 ft 156 kts 304°
2026-04-28 16:54 29.97942 -90.12445 8849 ft 157 kts 303°
2026-04-28 16:54 29.98575 -90.13477 9597 ft 158 kts 303°
2026-04-28 16:55 29.99216 -90.14514 10359 ft 159 kts 303°
2026-04-28 16:55 29.99981 -90.15434 11099 ft 162 kts 322°
2026-04-28 16:55 30.01020 -90.15951 11849 ft 166 kts 343°
2026-04-28 16:55 30.02166 -90.16076 12541 ft 170 kts 351°
2026-04-28 16:56 30.03362 -90.16187 13266 ft 170 kts 350°
2026-04-28 16:56 30.04539 -90.16298 13956 ft 171 kts 350°
2026-04-28 16:56 30.05739 -90.16407 14654 ft 171 kts 350°
2026-04-28 16:56 30.06931 -90.16515 15323 ft 173 kts 349°
2026-04-28 16:57 30.08116 -90.16622 15992 ft 173 kts 349°
2026-04-28 16:57 30.09324 -90.16733 16655 ft 174 kts 349°
2026-04-28 16:57 30.10536 -90.16843 17322 ft 175 kts 349°
2026-04-28 16:57 30.11487 -90.16930 17835 ft 176 kts 349°
2026-04-28 16:58 30.12711 -90.17041 18495 ft 177 kts 349°
2026-04-28 16:58 30.13943 -90.17154 19128 ft 179 kts 349°
2026-04-28 16:58 30.15190 -90.17267 19753 ft 181 kts 349°
2026-04-28 16:58 30.16493 -90.17385 20204 ft 194 kts 355°
2026-04-28 16:59 30.17838 -90.17506 20850 ft 194 kts 355°
2026-04-28 16:59 30.19193 -90.17631 21471 ft 197 kts 355°
2026-04-28 16:59 30.20562 -90.17756 22079 ft 199 kts 355°
2026-04-28 16:59 30.21950 -90.17881 22672 ft 201 kts 355°
2026-04-28 17:00 30.23351 -90.17980 23252 ft 203 kts 356°
2026-04-28 17:00 30.24757 -90.18075 23862 ft 203 kts 356°
2026-04-28 17:00 30.26167 -90.18177 24463 ft 202 kts 356°
2026-04-28 17:00 30.27570 -90.18279 25047 ft 202 kts 355°
2026-04-28 17:01 30.28970 -90.18381 25617 ft 201 kts 356°
2026-04-28 17:01 30.30367 -90.18482 26186 ft 201 kts 355°
2026-04-28 17:01 30.31762 -90.18583 26787 ft 201 kts 356°
2026-04-28 17:01 30.33127 -90.18682 27422 ft 200 kts 356°
2026-04-28 17:02 30.34542 -90.18785 27890 ft 208 kts 356°
2026-04-28 17:02 30.36071 -90.18897 28018 ft 235 kts 356°
2026-04-28 17:02 30.37812 -90.19024 28025 ft 265 kts 356°
2026-04-28 17:02 30.39735 -90.19163 28027 ft 288 kts 356°
2026-04-28 17:03 30.43755 -90.19456 28010 ft 284 kts 356°
2026-04-28 17:03 30.45716 -90.19598 28007 ft 282 kts 356°
2026-04-28 17:03 30.47670 -90.19740 28011 ft 282 kts 356°
2026-04-28 17:04 30.51614 -90.20031 28011 ft 285 kts 356°
2026-04-28 17:04 30.53598 -90.20177 28010 ft 286 kts 356°
2026-04-28 17:05 30.57569 -90.20468 28012 ft 287 kts 356°
2026-04-28 17:05 30.59564 -90.20614 28007 ft 287 kts 356°
2026-04-28 17:05 30.61555 -90.20759 28009 ft 287 kts 356°
2026-04-28 17:06 30.65526 -90.21048 28005 ft 284 kts 356°
2026-04-28 17:06 30.67500 -90.21193 28005 ft 284 kts 356°
2026-04-28 17:06 30.70771 -90.21431 28002 ft 283 kts 356°
2026-04-28 17:07 30.71954 -90.21517 28000 ft 282 kts 356°
2026-04-28 17:07 30.73912 -90.21660 27999 ft 282 kts 356°
2026-04-28 17:07 30.75870 -90.21803 28000 ft 282 kts 356°
2026-04-28 17:07 30.77829 -90.21946 27996 ft 282 kts 356°
2026-04-28 17:08 30.79779 -90.22089 27998 ft 282 kts 356°
2026-04-28 17:08 30.81747 -90.22232 27999 ft 282 kts 356°
2026-04-28 17:08 30.83704 -90.22376 27998 ft 282 kts 356°
2026-04-28 17:08 30.85663 -90.22518 27998 ft 282 kts 356°
2026-04-28 17:09 30.87619 -90.22662 27997 ft 282 kts 356°
2026-04-28 17:09 30.89569 -90.22806 27997 ft 282 kts 356°
2026-04-28 17:09 30.91529 -90.22949 27997 ft 281 kts 356°
2026-04-28 17:09 30.93485 -90.23093 27998 ft 283 kts 356°
2026-04-28 17:10 30.95454 -90.23237 28002 ft 284 kts 356°
2026-04-28 17:10 30.97431 -90.23383 28002 ft 285 kts 356°
2026-04-28 17:10 30.99413 -90.23530 28006 ft 286 kts 356°
2026-04-28 17:10 31.01388 -90.23674 28004 ft 286 kts 356°
2026-04-28 17:11 31.03385 -90.23820 28008 ft 286 kts 356°
2026-04-28 17:11 31.05369 -90.23967 28007 ft 286 kts 356°
2026-04-28 17:11 31.07357 -90.24114 28011 ft 286 kts 356°
2026-04-28 17:11 31.09335 -90.24259 28008 ft 286 kts 356°
2026-04-28 17:12 31.11329 -90.24406 28007 ft 286 kts 356°
2026-04-28 17:12 31.13311 -90.24553 28013 ft 286 kts 356°
2026-04-28 17:12 31.15300 -90.24700 28010 ft 286 kts 356°
2026-04-28 17:12 31.17285 -90.24847 28009 ft 286 kts 356°
2026-04-28 17:13 31.19274 -90.24993 28008 ft 286 kts 356°
2026-04-28 17:13 31.21260 -90.25140 28009 ft 286 kts 356°
2026-04-28 17:13 31.23245 -90.25287 28009 ft 286 kts 356°
2026-04-28 17:13 31.25223 -90.25433 28008 ft 286 kts 356°
2026-04-28 17:14 31.27215 -90.25581 28008 ft 286 kts 356°
2026-04-28 17:14 31.29202 -90.25728 28008 ft 286 kts 356°
2026-04-28 17:14 31.31184 -90.25781 28003 ft 286 kts
2026-04-28 17:14 31.33168 -90.25623 28006 ft 286 kts
2026-04-28 17:15 31.35156 -90.25464 28006 ft 287 kts
2026-04-28 17:15 31.37144 -90.25319 28007 ft 286 kts
2026-04-28 17:15 31.39133 -90.25176 28011 ft 286 kts
2026-04-28 17:15 31.41120 -90.25028 28008 ft 286 kts
2026-04-28 17:16 31.43107 -90.24878 28012 ft 286 kts
2026-04-28 17:16 31.45093 -90.24729 28008 ft 287 kts
2026-04-28 17:16 31.47059 -90.24584 28009 ft 287 kts
2026-04-28 17:16 31.49071 -90.24435 28009 ft 286 kts
2026-04-28 17:17 31.51038 -90.24287 28009 ft 287 kts
2026-04-28 17:17 31.53028 -90.24138 28010 ft 286 kts
2026-04-28 17:17 31.55015 -90.23989 28009 ft 286 kts
2026-04-28 17:17 31.57028 -90.23840 28009 ft 286 kts
2026-04-28 17:18 31.58991 -90.23693 28008 ft 286 kts
2026-04-28 17:18 31.60978 -90.23545 28013 ft 286 kts
2026-04-28 17:18 31.62979 -90.23395 28008 ft 286 kts
2026-04-28 17:18 31.64943 -90.23247 28009 ft 282 kts
2026-04-28 17:19 31.66855 -90.23095 28112 ft 266 kts 353°
2026-04-28 17:19 31.68705 -90.22966 28127 ft 273 kts 353°
2026-04-28 17:19 31.70611 -90.22830 28131 ft 274 kts 354°
2026-04-28 17:19 31.72504 -90.22681 28130 ft 272 kts 354°
2026-04-28 17:20 31.74385 -90.22538 28129 ft 270 kts 354°
2026-04-28 17:20 31.75653 -90.22444 28127 ft 270 kts 354°
2026-04-28 17:20 31.78137 -90.22259 28050 ft 272 kts 354°
2026-04-28 17:20 31.80056 -90.22117 27853 ft 274 kts 354°
2026-04-28 17:21 31.81956 -90.21977 27583 ft 287 kts 354°
2026-04-28 17:21 31.83963 -90.21828 27580 ft 283 kts 355°
2026-04-28 17:21 31.85956 -90.21672 27219 ft 296 kts 355°
2026-04-28 17:22 31.89887 -90.21361 26280 ft 274 kts 354°
2026-04-28 17:22 31.91762 -90.21234 25322 ft 279 kts 354°
2026-04-28 17:22 31.93608 -90.21100 24808 ft 285 kts 355°
2026-04-28 17:23 31.97645 -90.20790 24433 ft 293 kts 356°
2026-04-28 17:23 31.99660 -90.20632 24036 ft 283 kts 356°
2026-04-28 17:23 32.01648 -90.20483 22865 ft 290 kts 355°
2026-04-28 17:23 32.03672 -90.20339 21819 ft 293 kts 356°
2026-04-28 17:24 32.05706 -90.20183 20782 ft 292 kts 356°
2026-04-28 17:24 32.07736 -90.20025 19663 ft 293 kts 356°
2026-04-28 17:24 32.09769 -90.19877 18486 ft 292 kts 355°
2026-04-28 17:24 32.11789 -90.19916 17236 ft 290 kts 351°
2026-04-28 17:25 32.13812 -90.20000 15954 ft 292 kts 352°
2026-04-28 17:25 32.17838 -90.20131 13653 ft 285 kts 352°
2026-04-28 17:25 32.19787 -90.20202 12501 ft 281 kts 352°
2026-04-28 17:26 32.21745 -90.20291 11378 ft 277 kts 353°
2026-04-28 17:26 32.23662 -90.20359 10320 ft 274 kts 353°
2026-04-28 17:26 32.25555 -90.20413 9214 ft 271 kts 354°
2026-04-28 17:26 32.27432 -90.20470 8111 ft 268 kts 354°
2026-04-28 17:27 32.29262 -90.20674 6961 ft 261 kts 341°
2026-04-28 17:27 32.30871 -90.21449 6402 ft 237 kts 330°
2026-04-28 17:27 32.32318 -90.22149 6119 ft 213 kts 335°
2026-04-28 17:27 32.33677 -90.22669 5658 ft 203 kts 338°
2026-04-28 17:28 32.35037 -90.23156 5039 ft 204 kts 338°
2026-04-28 17:28 32.37680 -90.24229 3896 ft 200 kts 334°
2026-04-28 17:28 32.38971 -90.24826 3348 ft 198 kts 336°
2026-04-28 17:29 32.40307 -90.25437 3029 ft 219 kts 336°
2026-04-28 17:29 32.41594 -90.26022 2983 ft 196 kts 336°
2026-04-28 17:29 32.42906 -90.26626 2988 ft 199 kts 336°
2026-04-28 17:30 32.45582 -90.27337 2982 ft 202 kts
2026-04-28 17:30 32.48003 -90.25811 2982 ft 200 kts 51°
2026-04-28 17:30 32.48756 -90.24438 2989 ft 198 kts 62°
2026-04-28 17:31 32.49468 -90.23027 2992 ft 200 kts 61°
2026-04-28 17:31 32.50656 -90.20287 2982 ft 170 kts 81°
2026-04-28 17:32 32.50487 -90.17669 2992 ft 159 kts 116°
2026-04-28 17:32 32.49942 -90.16558 2987 ft 151 kts 131°
2026-04-28 17:32 32.49210 -90.15731 2973 ft 148 kts 147°
2026-04-28 17:32 32.48284 -90.15152 2978 ft 152 kts 161°
2026-04-28 17:33 32.47297 -90.14691 2981 ft 152 kts 160°
2026-04-28 17:33 32.46327 -90.14222 2973 ft 150 kts 160°
2026-04-28 17:33 32.45358 -90.13757 2919 ft 153 kts 160°
2026-04-28 17:33 32.45023 -90.13597 2862 ft 155 kts 160°
2026-04-28 17:34 32.43551 -90.12886 2532 ft 115 kts 161°
2026-04-28 17:34 32.42843 -90.12550 2393 ft 110 kts 162°
2026-04-28 17:34 32.42135 -90.12214 2271 ft 108 kts 161°
2026-04-28 17:34 32.41442 -90.11882 2131 ft 108 kts 162°
2026-04-28 17:35 32.40751 -90.11555 1995 ft 107 kts 162°
2026-04-28 17:35 32.40064 -90.11223 1849 ft 106 kts 162°
2026-04-28 17:35 32.39422 -90.10916 1700 ft 94 kts 163°
2026-04-28 17:35 32.38803 -90.10625 1581 ft 99 kts 162°
2026-04-28 17:36 32.38147 -90.10312 1451 ft 103 kts 162°
2026-04-28 17:36 32.37501 -90.10006 1313 ft 98 kts 162°
2026-04-28 17:36 32.37081 -90.09804 1211 ft 98 kts 160°
2026-04-28 17:36 32.36473 -90.09517 1062 ft 94 kts 161°
2026-04-28 17:37 32.36070 -90.09318 1011 ft 93 kts 160°
2026-04-28 17:37 32.35679 -90.09123 942 ft 92 kts 160°
2026-04-28 17:37 32.35085 -90.08845 839 ft 92 kts 160°
2026-04-28 17:37 32.34490 -90.08559 731 ft 93 kts 160°
2026-04-28 17:38 32.33898 -90.08278 588 ft 91 kts 159°
2026-04-28 17:38 32.33305 -90.07995 471 ft 92 kts 158°
2026-04-28 17:38 32.32714 -90.07721 333 ft 89 kts 158°
2026-04-28 17:38 32.32215 -90.07484 300 ft 66 kts 158°
2026-04-28 17:39 32.31891 -90.07329 300 ft 47 kts 159°
2026-04-28 17:39 32.31678 -90.07228 300 ft 34 kts 160°
2026-04-28 17:39 32.31290 -90.07223 292 ft 28 kts 189°
2026-04-28 17:40 32.31131 -90.07230 291 ft 21 kts 155°
2026-04-28 17:40 32.30954 -90.07145 293 ft 19 kts 159°
2026-04-28 17:40 32.30860 -90.07100 295 ft 15 kts 163°
2026-04-28 17:40 32.30831 -90.07142 291 ft 0 kts 247°
2026-04-28 17:41 32.30809 -90.07191 292 ft 7 kts 207°
2026-04-28 17:41 32.30792 -90.07217 290 ft 1 kts 322°
2026-04-28 17:42 32.30800 -90.07220 290 ft 1 kts 339°
2026-04-28 17:42 32.30804 -90.07222 290 ft 0 kts 338°
2026-04-28 17:42 32.30805 -90.07222 290 ft 0 kts 338°
2026-04-28 17:55 32.30804 -90.07222 290 ft 0 kts 338°
2026-04-28 19:37 32.30803 -90.07222 290 ft 0 kts 338°